When you browse on this site, cookies collect data to enhance your experience and personalize the content and advertising you see.
Visit our Privacy Policy to learn more. By continuing to use the site, you agree to this use of cookies and data.
  • In Austria
  • List of Countries
  • For 7 days
  • Water Temperature
  • Weather Map
  • News
  • Weather Widgets
  • user-avatar
    Login

    Hourly Weather Kitzbuhel

    Today, 22 October, Tuesday

    Time Temperature Precipitation Wind Pressure Humidity
    00:00 +12°C° 0 mm 1 mps 681 mmHg 86%
    01:00 +12°C° 0 mm 1 mps 681 mmHg 82%
    02:00 +12°C° 0 mm 1 mps 681 mmHg 82%
    03:00 +11°C° 0 mm 1 mps 681 mmHg 81%
    04:00 +11°C° 0 mm 1 mps 681 mmHg 80%
    05:00 +11°C° 0 mm 1 mps 681 mmHg 79%
    06:00 +11°C° 0 mm 1 mps 681 mmHg 78%
    07:00 +11°C° 0 mm 1 mps 681 mmHg 77%
    08:00 +14°C° 0 mm 1 mps 682 mmHg 70%
    09:00 +16°C° 0 mm 1 mps 682 mmHg 63%
    10:00 +20°C° 0 mm 1 mps 683 mmHg 55%
    11:00 +20°C° 0 mm 1 mps 683 mmHg 54%
    12:00 +21°C° 0 mm 1 mps 683 mmHg 53%
    13:00 +22°C° 0 mm 1 mps 683 mmHg 52%
    14:00 +20°C° 0 mm 1 mps 682 mmHg 61%
    15:00 +19°C° 0 mm 1 mps 682 mmHg 70%
    16:00 +18°C° 0 mm 1 mps 681 mmHg 78%
    17:00 +16°C° 0 mm 1 mps 681 mmHg 81%
    18:00 +14°C° 0 mm 1 mps 681 mmHg 84%
    19:00 +13°C° 0 mm 1 mps 681 mmHg 87%
    20:00 +12°C° 0 mm 1 mps 681 mmHg 86%
    21:00 +12°C° 0 mm 1 mps 681 mmHg 85%
    22:00 +12°C° 0 mm 1 mps 680 mmHg 84%
    23:00 +12°C° 0 mm 2 mps 680 mmHg 82%

    Tomorrow, 23 October, Wednesday

    Time Temperature Precipitation Wind Pressure Humidity
    00:00 +12°C° 0 mm 2 mps 680 mmHg 79%
    01:00 +10°C° 0 mm 2 mps 680 mmHg 77%
    02:00 +10°C° 0 mm 2 mps 680 mmHg 74%
    03:00 +10°C° 0 mm 2 mps 679 mmHg 72%
    04:00 +10°C° 0 mm 2 mps 679 mmHg 69%
    05:00 +10°C° 0 mm 2 mps 679 mmHg 66%
    06:00 +10°C° 0 mm 2 mps 679 mmHg 64%
    07:00 +10°C° 0 mm 2 mps 678 mmHg 62%
    08:00 +14°C° 0 mm 2 mps 679 mmHg 57%
    09:00 +16°C° 0 mm 2 mps 679 mmHg 52%
    10:00 +19°C° 0 mm 2 mps 680 mmHg 47%
    11:00 +20°C° 0 mm 2 mps 679 mmHg 45%
    12:00 +21°C° 0 mm 2 mps 679 mmHg 43%
    13:00 +23°C° 0 mm 2 mps 679 mmHg 41%
    14:00 +21°C° 0 mm 2 mps 679 mmHg 47%
    15:00 +20°C° 0 mm 2 mps 678 mmHg 54%
    16:00 +18°C° 0 mm 2 mps 677 mmHg 60%
    17:00 +17°C° 0 mm 2 mps 677 mmHg 62%
    18:00 +14°C° 0 mm 3 mps 677 mmHg 65%
    19:00 +12°C° 0 mm 3 mps 677 mmHg 67%
    20:00 +12°C° 0 mm 3 mps 677 mmHg 66%
    21:00 +11°C° 0 mm 3 mps 676 mmHg 64%
    22:00 +11°C° 0 mm 3 mps 676 mmHg 63%
    23:00 +11°C° 0 mm 3 mps 676 mmHg 60%

    Day after tomorrow, 24 October, Thursday

    Time Temperature Precipitation Wind Pressure Humidity
    00:00 +11°C° 0 mm 4 mps 676 mmHg 58%
    01:00 +11°C° 0 mm 4 mps 676 mmHg 55%
    02:00 +11°C° 0 mm 4 mps 675 mmHg 53%
    03:00 +11°C° 0 mm 4 mps 675 mmHg 51%
    04:00 +11°C° 0 mm 3 mps 675 mmHg 50%
    05:00 +11°C° 0 mm 3 mps 675 mmHg 49%
    06:00 +11°C° 0 mm 3 mps 675 mmHg 49%
    07:00 +12°C° 0 mm 3 mps 675 mmHg 49%
    08:00 +13°C° 0 mm 3 mps 675 mmHg 49%
    09:00 +16°C° 0 mm 3 mps 676 mmHg 49%
    10:00 +18°C° 0 mm 2 mps 676 mmHg 49%
    11:00 +19°C° 0 mm 2 mps 676 mmHg 48%
    12:00 +20°C° 0 mm 2 mps 676 mmHg 47%
    13:00 +21°C° 0 mm 2 mps 676 mmHg 46%
    14:00 +19°C° 0 mm 2 mps 676 mmHg 54%
    15:00 +18°C° 0 mm 2 mps 676 mmHg 62%
    16:00 +16°C° 0 mm 2 mps 675 mmHg 70%
    17:00 +15°C° 0 mm 1 mps 675 mmHg 75%
    18:00 +13°C° 0 mm 1 mps 675 mmHg 80%
    19:00 +12°C° 0 mm 1 mps 675 mmHg 85%
    20:00 +11°C° 0 mm 1 mps 676 mmHg 86%
    21:00 +11°C° 0 mm 1 mps 676 mmHg 88%
    22:00 +10°C° 0 mm 0 mps 676 mmHg 89%
    23:00 +9°C° 0 mm 0 mps 677 mmHg 90%

    25 October, Friday

    Time Temperature Precipitation Wind Pressure Humidity
    00:00 +9°C° 0 mm 0 mps 677 mmHg 92%
    01:00 +9°C° 0 mm 0 mps 677 mmHg 93%
    02:00 +9°C° 0 mm 0 mps 678 mmHg 93%
    03:00 +9°C° 0 mm 0 mps 678 mmHg 93%
    04:00 +10°C° 0 mm 0 mps 679 mmHg 92%
    05:00 +10°C° 0.3 mm 1 mps 679 mmHg 94%
    06:00 +10°C° 0.3 mm 1 mps 679 mmHg 95%
    07:00 +10°C° 0.3 mm 1 mps 680 mmHg 97%
    08:00 +11°C° 0 mm 1 mps 680 mmHg 93%
    09:00 +11°C° 0 mm 0 mps 681 mmHg 89%
    10:00 +12°C° 0 mm 0 mps 681 mmHg 85%
    11:00 +12°C° 0 mm 0 mps 681 mmHg 84%
    12:00 +13°C° 0 mm 1 mps 681 mmHg 83%
    13:00 +13°C° 0 mm 1 mps 681 mmHg 82%
    14:00 +13°C° 0 mm 1 mps 681 mmHg 81%
    15:00 +14°C° 0 mm 1 mps 680 mmHg 81%
    16:00 +14°C° 0 mm 1 mps 680 mmHg 81%
    17:00 +12°C° 0 mm 1 mps 680 mmHg 85%
    18:00 +11°C° 0 mm 1 mps 680 mmHg 90%
    19:00 +10°C° 0 mm 1 mps 680 mmHg 94%
    20:00 +10°C° 0 mm 1 mps 680 mmHg 93%
    21:00 +10°C° 0 mm 1 mps 680 mmHg 93%
    22:00 +9°C° 0 mm 2 mps 680 mmHg 92%
    23:00 +9°C° 0 mm 2 mps 680 mmHg 91%

    26 October, Saturday

    Time Temperature Precipitation Wind Pressure Humidity
    00:00 +9°C° 0 mm 2 mps 679 mmHg 90%
    01:00 +9°C° 0 mm 2 mps 679 mmHg 90%
    02:00 +9°C° 0 mm 2 mps 679 mmHg 88%
    03:00 +9°C° 0 mm 2 mps 679 mmHg 87%
    04:00 +9°C° 0 mm 2 mps 679 mmHg 86%
    05:00 +10°C° 0 mm 1 mps 679 mmHg 85%
    06:00 +9°C° 0 mm 1 mps 679 mmHg 84%
    07:00 +9°C° 0 mm 1 mps 679 mmHg 83%
    08:00 +12°C° 0 mm 1 mps 680 mmHg 75%
    09:00 +15°C° 0 mm 1 mps 680 mmHg 67%
    10:00 +16°C° 0 mm 0 mps 681 mmHg 60%
    11:00 +19°C° 0 mm 1 mps 681 mmHg 57%
    12:00 +20°C° 0 mm 1 mps 681 mmHg 54%
    13:00 +21°C° 0 mm 1 mps 680 mmHg 51%
    14:00 +20°C° 0 mm 1 mps 680 mmHg 58%
    15:00 +18°C° 0 mm 1 mps 679 mmHg 65%
    16:00 +16°C° 0 mm 1 mps 679 mmHg 72%
    17:00 +14°C° 0 mm 1 mps 679 mmHg 77%
    18:00 +11°C° 0 mm 0 mps 679 mmHg 81%
    19:00 +10°C° 0 mm 0 mps 679 mmHg 86%
    20:00 +9°C° 0 mm 0 mps 679 mmHg 86%
    21:00 +9°C° 0 mm 0 mps 679 mmHg 86%
    22:00 +10°C° 0 mm 1 mps 679 mmHg 86%
    23:00 +8°C° 0 mm 0 mps 679 mmHg 86%

    27 October, Sunday

    Time Temperature Precipitation Wind Pressure Humidity
    00:00 +8°C° 0 mm 0 mps 679 mmHg 85%
    01:00 +8°C° 0 mm 0 mps 679 mmHg 85%
    02:00 +8°C° 0 mm 0 mps 679 mmHg 85%
    03:00 +8°C° 0 mm 0 mps 679 mmHg 85%
    04:00 +8°C° 0 mm 0 mps 679 mmHg 85%
    05:00 +7°C° 0 mm 0 mps 679 mmHg 85%
    06:00 +7°C° 0 mm 0 mps 679 mmHg 85%
    07:00 +7°C° 0 mm 0 mps 680 mmHg 85%
    08:00 +9°C° 0 mm 0 mps 680 mmHg 81%
    09:00 +10°C° 0 mm 0 mps 681 mmHg 76%
    10:00 +11°C° 0 mm 0 mps 681 mmHg 71%
    11:00 +13°C° 0 mm 1 mps 681 mmHg 70%
    12:00 +13°C° 0 mm 1 mps 681 mmHg 69%
    13:00 +14°C° 0 mm 1 mps 681 mmHg 68%
    14:00 +13°C° 0 mm 1 mps 681 mmHg 72%
    15:00 +13°C° 0 mm 1 mps 681 mmHg 76%
    16:00 +12°C° 0 mm 1 mps 680 mmHg 81%
    17:00 +11°C° 0 mm 1 mps 680 mmHg 85%
    18:00 +9°C° 0 mm 0 mps 680 mmHg 89%
    19:00 +8°C° 0 mm 0 mps 680 mmHg 94%
    20:00 +9°C° 0 mm 0 mps 680 mmHg 93%
    21:00 +9°C° 0 mm 0 mps 680 mmHg 92%
    22:00 +9°C° 0 mm 0 mps 680 mmHg 92%
    23:00 +9°C° 0 mm 0 mps 680 mmHg 92%

    28 October, Monday

    Time Temperature Precipitation Wind Pressure Humidity
    00:00 +9°C° 0 mm 0 mps 679 mmHg 91%
    01:00 +9°C° 0 mm 0 mps 679 mmHg 91%
    02:00 +10°C° 0.1 mm 1 mps 679 mmHg 92%
    03:00 +10°C° 0.1 mm 1 mps 678 mmHg 92%
    04:00 +10°C° 0.1 mm 1 mps 678 mmHg 93%
    05:00 +10°C° 0 mm 1 mps 678 mmHg 92%
    06:00 +9°C° 0 mm 1 mps 678 mmHg 92%
    07:00 +8°C° 0 mm 0 mps 678 mmHg 92%
    08:00 +10°C° 0 mm 1 mps 678 mmHg 91%
    09:00 +11°C° 0 mm 1 mps 678 mmHg 89%
    10:00 +11°C° 0 mm 1 mps 678 mmHg 88%
    11:00 +13°C° 0 mm 1 mps 679 mmHg 80%
    12:00 +15°C° 0 mm 1 mps 679 mmHg 73%
    13:00 +15°C° 0 mm 0 mps 679 mmHg 66%
    14:00 +15°C° 0 mm 0 mps 679 mmHg 71%
    15:00 +15°C° 0 mm 1 mps 678 mmHg 76%
    16:00 +14°C° 0 mm 1 mps 678 mmHg 81%
    17:00 +13°C° 0 mm 1 mps 678 mmHg 84%
    18:00 +12°C° 0 mm 1 mps 678 mmHg 86%
    19:00 +11°C° 0 mm 1 mps 678 mmHg 89%
    20:00 +11°C° 0.3 mm 1 mps 678 mmHg 90%
    21:00 +11°C° 0.3 mm 1 mps 678 mmHg 91%
    22:00 +11°C° 0.3 mm 1 mps 678 mmHg 92%
    23:00 +11°C° 0.2 mm 1 mps 678 mmHg 92%
    Show more